Location: Bernadets
(43.3537°N, 0.3167°E)
Time: 18:23:41
(UTC+00:00)

Okean-O - Pass Details

Date: 30 May 2022
Orbit: 638 x 640 km, 98.1° (Epoch: 27 June)

Event Time Altitude Azimuth Distance (km) Brightness Sun altitude
Rises 20:16:00 0° 191° (S) 2,929 5.7 -7.5°
Reaches altitude 10° 20:18:25 10° 202° (SSW) 2,025 5.0 -7.8°
Maximum altitude 20:22:18 30° 264° (W) 1,156 4.5 -8.4°
Drops below altitude 10° 20:26:12 10° 325° (NW) 2,039 6.7 -8.9°
Sets 20:28:39 0° 337° (NNW) 2,952 7.4 -9.2°
